Weather History for KCZZ - August, 2014

Change the Weather History Date:

Tuesday, August 19, 2014

  Actual Average Record
Temperature  
Mean Temperature 69 °F 74 °F  
Max Temperature 85 °F 95 °F 105 °F (1950)
Min Temperature 52 °F 53 °F 39 °F (1985)
Degree Days  
Heating Degree Days 0 0  
Month to date heating degree days 2 0  
Since 1 June heating degree days 30 63  
Since 1 July heating degree days 2 7  
Cooling Degree Days 4 9  
Month to date cooling degree days 153 171  
Year to date cooling degree days 551 543  
Since 1 June cooling degree days 499 513  
Growing Degree Days 20 (Base 50)    
Moisture  
Dew Point 48 °F    
Average Humidity 46    
Maximum Humidity 72    
Minimum Humidity 20    
Precipitation  
Precipitation 0.00 in 0.03 in 1.33 in (1984)
Month to date precipitation 0.45 0.44  
Year to date precipitation 3.35 10.91  
Since 1 July precipitation 0.59 0.76  
Snow  
Snow 0.00 in - - ()
Month to date snowfall 0.0  
Year to date snowfall 0.0  
Since 1 July snowfall 0.0  
Snow Depth 0.00 in    
Sea Level Pressure  
Sea Level Pressure 29.82 in    
Wind  
Wind Speed 8 mph (SSW)    
Max Wind Speed 20 mph    
Max Gust Speed 24 mph    
T = Trace of Precipitation, MM = Missing Value Source: NWS Daily Summary

Daily Weather History Graph

Daily Weather History Graph

Search for Another Location

Airport or City:

Trip Planner

Search our weather history database for the weather conditions in past years. The results will help you decide how hot, cold, wet, or windy it might be!

Date:

Astronomy

Aug. 19, 2014 Rise Set
Actual Time 6:12 AM PDT 7:26 PM PDT
Civil Twilight 5:46 AM PDT 7:51 PM PDT
Nautical Twilight 5:15 AM PDT 8:22 PM PDT
Astronomical Twilight 4:44 AM PDT 8:54 PM PDT
Moon 1:13 AM PDT (8/19) 3:20 PM PDT (8/19)
Length of Visible Light 14h 05m
Length of Day
13h 13m
Waning Crescent, 28% of the Moon is Illuminated
Aug 19
Waning Crescent
Aug 25
New
Sep 2
First Quarter
Sep 8
Full
Sep 15
Last Quarter

Hourly Weather History & Observations

Time (PDT) Temp. Dew Point Humidity Pressure Visibility Wind Dir Wind Speed Gust Speed Precip Events Conditions
12:52 AM 63.0 °F 53.1 °F 70% 29.81 in - ENE 4.6 mph - N/A   Unknown
1:52 AM 64.4 °F 51.8 °F 64% 29.91 in - Calm Calm - N/A   Unknown
2:52 AM 60.1 °F 50.0 °F 69% 29.81 in - NE 5.8 mph - N/A   Unknown
3:52 AM 57.9 °F 46.9 °F 67% 29.81 in - NNE 4.6 mph - N/A   Unknown
4:52 AM 55.0 °F 45.0 °F 69% 29.80 in - NE 6.9 mph - N/A   Unknown
5:52 AM 55.0 °F 43.0 °F 64% 29.81 in - ENE 5.8 mph - N/A   Unknown
6:52 AM 55.9 °F 42.1 °F 60% 29.83 in - NE 6.9 mph - N/A   Unknown
7:52 AM 66.0 °F 41.0 °F 40% 29.82 in - Calm Calm - N/A   Unknown
8:52 AM 73.9 °F 46.9 °F 38% 29.82 in - Variable 4.6 mph - N/A   Unknown
9:52 AM 77.0 °F 44.1 °F 31% 29.83 in - SSW 11.5 mph - N/A   Unknown
10:52 AM 79.0 °F 46.9 °F 32% 29.83 in - South 9.2 mph - N/A   Unknown
11:52 AM 82.0 °F 46.9 °F 29% 29.83 in - SSW 10.4 mph 17.3 mph N/A   Unknown
12:52 PM 82.9 °F 41.0 °F 23% 29.81 in - WSW 15.0 mph 20.7 mph N/A   Unknown
1:52 PM 84.2 °F 39.2 °F 20% 29.90 in - SW 10.4 mph - N/A   Unknown
2:52 PM 84.0 °F 43.0 °F 24% 29.79 in - WSW 15.0 mph 19.6 mph N/A   Unknown
3:52 PM 82.0 °F 46.0 °F 28% 29.78 in - SSW 15.0 mph 19.6 mph N/A   Unknown
4:52 PM 80.1 °F 48.0 °F 32% 29.78 in - SSW 16.1 mph - N/A   Unknown
5:52 PM 75.9 °F 54.0 °F 46% 29.78 in - SSW 17.3 mph - N/A   Unknown
6:52 PM 71.1 °F 55.0 °F 57% 29.79 in - SW 15.0 mph - N/A   Unknown
7:52 PM 66.0 °F 55.9 °F 70% 29.81 in - SW 11.5 mph - N/A   Unknown
8:52 PM 64.0 °F 55.9 °F 75% 29.83 in - SSW 5.8 mph - N/A   Unknown
9:52 PM 62.1 °F 54.0 °F 75% 29.83 in - NNW 3.5 mph - N/A   Unknown
10:52 PM 57.9 °F 52.0 °F 81% 29.83 in - NE 3.5 mph - N/A   Unknown
11:52 PM 57.9 °F 51.1 °F 78% 29.83 in - NE 4.6 mph - N/A   Unknown